• en France
  • Liste des pays
  • À 7 jours
  • Température de l'eau
  • Carte satellitaire
  • Carte météo
  • Widgets météo
  • user-avatar
    Se connecter

    Météo par heure à Ishtiburi

    Ce jour, 20 Octobre, Samedi

    Heure Température Précipitation Vent Pression Humidité
    00:00 +7°C° 0 mm 2 m/s 620 mmHg 67%
    01:00 +6°C° 0 mm 2 m/s 620 mmHg 67%
    02:00 +6°C° 0 mm 2 m/s 620 mmHg 66%
    03:00 +6°C° 0 mm 2 m/s 619 mmHg 66%
    04:00 +6°C° 0 mm 2 m/s 619 mmHg 63%
    05:00 +6°C° 0 mm 2 m/s 619 mmHg 60%
    06:00 +5°C° 0 mm 2 m/s 619 mmHg 57%
    07:00 +8°C° 0 mm 2 m/s 620 mmHg 49%
    08:00 +11°C° 0 mm 1 m/s 621 mmHg 42%
    09:00 +13°C° 0 mm 1 m/s 621 mmHg 34%
    10:00 +14°C° 0 mm 1 m/s 622 mmHg 33%
    11:00 +15°C° 0 mm 2 m/s 622 mmHg 31%
    12:00 +16°C° 0 mm 2 m/s 622 mmHg 30%
    13:00 +16°C° 0 mm 2 m/s 622 mmHg 33%
    14:00 +16°C° 0 mm 2 m/s 621 mmHg 36%
    15:00 +15°C° 0 mm 2 m/s 621 mmHg 39%
    16:00 +13°C° 0 mm 1 m/s 620 mmHg 48%
    17:00 +12°C° 0 mm 1 m/s 620 mmHg 56%
    18:00 +10°C° 0 mm 1 m/s 619 mmHg 65%
    19:00 +9°C° 0 mm 1 m/s 619 mmHg 63%
    20:00 +9°C° 0 mm 1 m/s 619 mmHg 61%
    21:00 +9°C° 0 mm 1 m/s 619 mmHg 59%
    22:00 +9°C° 0 mm 1 m/s 619 mmHg 57%
    23:00 +8°C° 0 mm 1 m/s 619 mmHg 56%

    Demain, 21 Octobre, Dimanche

    Heure Température Précipitation Vent Pression Humidité
    00:00 +8°C° 0 mm 1 m/s 618 mmHg 54%
    01:00 +8°C° 0 mm 1 m/s 618 mmHg 54%
    02:00 +8°C° 0 mm 1 m/s 618 mmHg 54%
    03:00 +8°C° 0 mm 1 m/s 618 mmHg 54%
    04:00 +7°C° 0 mm 1 m/s 618 mmHg 53%
    05:00 +7°C° 0 mm 1 m/s 618 mmHg 53%
    06:00 +7°C° 0 mm 1 m/s 618 mmHg 52%
    07:00 +9°C° 0 mm 1 m/s 619 mmHg 47%
    08:00 +11°C° 0 mm 1 m/s 620 mmHg 42%
    09:00 +12°C° 0 mm 0 m/s 621 mmHg 37%
    10:00 +14°C° 0 mm 1 m/s 621 mmHg 37%
    11:00 +15°C° 0 mm 1 m/s 621 mmHg 36%
    12:00 +16°C° 0 mm 2 m/s 621 mmHg 36%
    13:00 +16°C° 0 mm 2 m/s 621 mmHg 39%
    14:00 +15°C° 0 mm 2 m/s 621 mmHg 43%
    15:00 +15°C° 0 mm 2 m/s 620 mmHg 46%
    16:00 +13°C° 0 mm 1 m/s 620 mmHg 55%
    17:00 +11°C° 0 mm 1 m/s 619 mmHg 63%
    18:00 +10°C° 0 mm 1 m/s 619 mmHg 72%
    19:00 +10°C° 0 mm 1 m/s 619 mmHg 72%
    20:00 +9°C° 0 mm 1 m/s 619 mmHg 72%
    21:00 +9°C° 0 mm 1 m/s 619 mmHg 72%
    22:00 +9°C° 0 mm 1 m/s 619 mmHg 71%
    23:00 +9°C° 0 mm 1 m/s 619 mmHg 70%

    Après-demain, 22 Octobre, Lundi

    Heure Température Précipitation Vent Pression Humidité
    00:00 +8°C° 0 mm 1 m/s 618 mmHg 70%
    01:00 +8°C° 0 mm 1 m/s 618 mmHg 68%
    02:00 +8°C° 0 mm 1 m/s 618 mmHg 67%
    03:00 +8°C° 0 mm 1 m/s 618 mmHg 66%
    04:00 +8°C° 0 mm 1 m/s 618 mmHg 67%
    05:00 +8°C° 0 mm 1 m/s 618 mmHg 67%
    06:00 +7°C° 0 mm 1 m/s 618 mmHg 67%
    07:00 +9°C° 0 mm 1 m/s 619 mmHg 62%
    08:00 +11°C° 0 mm 1 m/s 620 mmHg 57%
    09:00 +12°C° 0 mm 1 m/s 621 mmHg 52%
    10:00 +13°C° 0 mm 1 m/s 621 mmHg 52%
    11:00 +14°C° 0 mm 2 m/s 621 mmHg 51%
    12:00 +15°C° 0 mm 2 m/s 621 mmHg 51%
    13:00 +14°C° 0 mm 2 m/s 621 mmHg 55%
    14:00 +13°C° 0 mm 2 m/s 621 mmHg 59%
    15:00 +13°C° 0 mm 2 m/s 621 mmHg 63%
    16:00 +12°C° 0 mm 2 m/s 621 mmHg 71%
    17:00 +11°C° 0 mm 1 m/s 620 mmHg 78%
    18:00 +9°C° 0 mm 1 m/s 620 mmHg 85%
    19:00 +9°C° 0 mm 1 m/s 620 mmHg 86%
    20:00 +8°C° 0 mm 0 m/s 620 mmHg 88%
    21:00 +7°C° 0 mm 0 m/s 620 mmHg 89%
    22:00 +8°C° 0 mm 1 m/s 620 mmHg 88%
    23:00 +8°C° 0 mm 1 m/s 620 mmHg 87%

    23 Octobre, Mardi

    Heure Température Précipitation Vent Pression Humidité
    00:00 +8°C° 0 mm 1 m/s 619 mmHg 86%
    01:00 +7°C° 0 mm 1 m/s 619 mmHg 83%
    02:00 +7°C° 0 mm 1 m/s 619 mmHg 80%
    03:00 +7°C° 0 mm 1 m/s 619 mmHg 78%
    04:00 +7°C° 0 mm 1 m/s 619 mmHg 76%
    05:00 +7°C° 0 mm 1 m/s 619 mmHg 74%
    06:00 +7°C° 0 mm 1 m/s 619 mmHg 72%
    07:00 +9°C° 0 mm 1 m/s 620 mmHg 67%
    08:00 +10°C° 0 mm 1 m/s 621 mmHg 61%
    09:00 +12°C° 0 mm 1 m/s 621 mmHg 56%
    10:00 +13°C° 0 mm 1 m/s 621 mmHg 53%
    11:00 +14°C° 0 mm 1 m/s 621 mmHg 51%
    12:00 +15°C° 0 mm 2 m/s 622 mmHg 49%
    13:00 +15°C° 0.1 mm 2 m/s 621 mmHg 51%
    14:00 +14°C° 0.1 mm 2 m/s 621 mmHg 54%
    15:00 +14°C° 0.1 mm 2 m/s 620 mmHg 56%
    16:00 +12°C° 0.3 mm 1 m/s 620 mmHg 62%
    17:00 +11°C° 0.3 mm 1 m/s 620 mmHg 69%
    18:00 +9°C° 0.3 mm 0 m/s 619 mmHg 75%
    19:00 +9°C° 0.2 mm 1 m/s 619 mmHg 76%
    20:00 +9°C° 0.2 mm 1 m/s 619 mmHg 76%
    21:00 +9°C° 0.2 mm 1 m/s 619 mmHg 76%
    22:00 +8°C° 0 mm 1 m/s 619 mmHg 75%
    23:00 +8°C° 0 mm 1 m/s 618 mmHg 74%

    24 Octobre, Mercredi

    Heure Température Précipitation Vent Pression Humidité
    00:00 +8°C° 0 mm 1 m/s 618 mmHg 73%
    01:00 +8°C° 0 mm 1 m/s 618 mmHg 71%
    02:00 +7°C° 0 mm 1 m/s 618 mmHg 68%
    03:00 +7°C° 0 mm 1 m/s 617 mmHg 66%
    04:00 +7°C° 0 mm 1 m/s 617 mmHg 64%
    05:00 +7°C° 0 mm 1 m/s 617 mmHg 63%
    06:00 +7°C° 0 mm 1 m/s 617 mmHg 62%
    07:00 +9°C° 0 mm 1 m/s 618 mmHg 56%
    08:00 +11°C° 0 mm 1 m/s 618 mmHg 50%
    09:00 +12°C° 0 mm 1 m/s 619 mmHg 45%
    10:00 +13°C° 0 mm 2 m/s 619 mmHg 43%
    11:00 +14°C° 0 mm 2 m/s 619 mmHg 41%
    12:00 +16°C° 0 mm 2 m/s 619 mmHg 39%
    13:00 +15°C° 0 mm 2 m/s 618 mmHg 41%
    14:00 +15°C° 0 mm 2 m/s 618 mmHg 42%
    15:00 +15°C° 0 mm 2 m/s 617 mmHg 44%
    16:00 +13°C° 0 mm 2 m/s 616 mmHg 50%
    17:00 +12°C° 0 mm 2 m/s 616 mmHg 57%
    18:00 +9°C° 0 mm 2 m/s 615 mmHg 63%
    19:00 +9°C° 0 mm 2 m/s 614 mmHg 61%
    20:00 +9°C° 0 mm 3 m/s 614 mmHg 59%
    21:00 +9°C° 0 mm 3 m/s 614 mmHg 57%
    22:00 +9°C° 0 mm 3 m/s 613 mmHg 56%
    23:00 +9°C° 0 mm 3 m/s 613 mmHg 55%

    25 Octobre, Jeudi

    Heure Température Précipitation Vent Pression Humidité
    00:00 +9°C° 0 mm 3 m/s 612 mmHg 53%
    01:00 +9°C° 0 mm 3 m/s 611 mmHg 54%
    02:00 +9°C° 0 mm 3 m/s 611 mmHg 56%
    03:00 +8°C° 0 mm 3 m/s 610 mmHg 57%
    04:00 +8°C° 0 mm 3 m/s 610 mmHg 56%
    05:00 +8°C° 0 mm 3 m/s 609 mmHg 56%
    06:00 +8°C° 0 mm 3 m/s 609 mmHg 55%
    07:00 +10°C° 0 mm 3 m/s 609 mmHg 52%
    08:00 +11°C° 0 mm 3 m/s 609 mmHg 48%
    09:00 +13°C° 0 mm 3 m/s 609 mmHg 44%
    10:00 +14°C° 0 mm 3 m/s 609 mmHg 43%
    11:00 +16°C° 0 mm 3 m/s 610 mmHg 41%
    12:00 +17°C° 0 mm 3 m/s 610 mmHg 40%
    13:00 +17°C° 0 mm 3 m/s 609 mmHg 40%
    14:00 +16°C° 0 mm 3 m/s 609 mmHg 40%
    15:00 +16°C° 0 mm 3 m/s 609 mmHg 41%
    16:00 +13°C° 0 mm 3 m/s 609 mmHg 46%
    17:00 +11°C° 0 mm 3 m/s 608 mmHg 52%
    18:00 +9°C° 0 mm 3 m/s 608 mmHg 57%
    19:00 +9°C° 0 mm 3 m/s 608 mmHg 59%
    20:00 +9°C° 0 mm 3 m/s 608 mmHg 60%
    21:00 +8°C° 0 mm 3 m/s 608 mmHg 61%
    22:00 +8°C° 0 mm 3 m/s 608 mmHg 63%
    23:00 +7°C° 0 mm 3 m/s 609 mmHg 65%
    Voir plus